Regional Weather Roundup
Issued by NWS Grand Forks, ND

Home | Current Version | Previous Version | Graphics & Text | Print | Product List | Glossary On
Versions: 1 2 3 4 5 6 7 8 9 10 11 12 13 14 15 16 17 18 19 20 21 22 23 24 25 26 27 28 29 30 31 32 33 34 35 36 37 38 39 40 41 42 43 44 45 46 47 48 49 50
000
ASUS43 KFGF 262031
RWRFGF
PRAIRIE TO PINES  WEATHER ROUNDUP
NATIONAL WEATHER SERVICE EASTERN NORTH DAKOTA/GRAND FORKS ND
200 PM CST FRI DEC 26 2014

 **SATELLITE DATA USED TO AUGMENT SKY COVER AT AUTOMATED STATIONS**
 *****  WEATHER ACROSS EASTERN NORTH DAKOTA  *****

CITY           SKY/WX    TMP DP  RH WIND       PRES   REMARKS
GRAND FORKS    FAIR      18  10  73 NW13      30.18S WCI   4
GRAND FRKS AFB FAIR      16  11  81 NW14      30.19S WCI   1
GRAND FRKS NWS   N/A     18 N/A N/A NW13        N/A  WCI   4
DEVILS LAKE    FAIR       9   0  66 NW12      30.16S WCI  -6
FARGO          CLOUDY    25  17  72 N12       30.15S WCI  14
WAHPETON ARPT  CLOUDY    27  18  69 NE10      30.14S WCI  17
$$

 ***** WEATHER ACROSS CENTRAL AND WESTERN NORTH DAKOTA  *****

CITY           SKY/WX    TMP DP  RH WIND       PRES   REMARKS
BISMARCK       CLOUDY    18  11  74 N5        30.16F WCI  11
MINOT          FAIR      13   5  70 N7        30.16F WCI   3
JAMESTOWN      FAIR      10   3  73 N15       30.15F WCI  -7
MINOT AFB      PTSUNNY    9   7  92 N9        30.16S WCI  -5
GARRISON         N/A     17   9  70 NW9       30.15F WCI   6
WILLISTON      CLOUDY    18  12  77 W3        30.15F
DICKINSON      MOSUNNY   24  14  65 N7        30.07F WCI  16
HETTINGER      MOSUNNY   23  12  62 NW10      30.09F WCI  12
$$

 *****  OTHER AIRPORT OBSERVATIONS IN OUR AREA  *****

CITY           SKY/WX    TMP DP  RH WIND       PRES   REMARKS
WALHALLA         N/A      7   5  92 NW10      30.21S WCI  -8
GRAFTON AIRPOR NOT AVBL
VALLEY CITY AR CLOUDY    14  14 100 NW13      30.15S WCI   0
CANDO          FAIR       9   1  72 NW10G16   30.18S WCI  -6
CAVALIER APRT  CLOUDY     9   1  72 NW10      30.21R WCI  -6
GWINNER        CLOUDY    23  21  93 NW15      30.15S WCI  10
ROLLA          FAIR       5   1  85 CALM      30.14S
 ***** THE ABOVE OBSERVATIONS ARE NON NWS ARE NOT QUALITY
       CONTROLLED AND MAY MIS-REPORT RAIN FOR SNOW...
$$

  *****  WEATHER ACROSS NORTHERN MINNESOTA  *****

CITY           SKY/WX    TMP DP  RH WIND       PRES   REMARKS
FLAG ISLAND    CLOUDY    16  12  86 NW10      30.12S WCI   3
WARROAD        CLOUDY    21  16  79 NW7       30.12S WCI  13
ROSEAU         FLURRIES  21  16  79 NW8       30.13S WCI  12
HALLOCK        FLURRIES  16  10  79 NW10      30.19R WCI   3
THF RVR FALLS  CLOUDY    18  16  93 NW12      30.14S WCI   5
BAUDETTE       CLOUDY    20  13  74 N10       30.10F WCI   9
WASKISH        CLOUDY    23  18  80 CALM      30.10S
CROOKSTON      CLOUDY    19  16  86 N14       30.17S WCI   6
STEPHEN NDAWN    N/A     16  12  86 N10         N/A  WCI   3
GREENBUSH NDAW   N/A     19  16  86 NW10        N/A  WCI   8
$$
  *****  WEATHER ACROSS CENTRAL AND WEST MINNESOTA  *****

CITY           SKY/WX    TMP DP  RH WIND       PRES   REMARKS
FOSSTON        CLOUDY    21  16  79 NW8       30.11F WCI  12
BEMIDJI        FLURRIES  23  16  73 NW8       30.08F WCI  14
PARK RAPIDS    CLOUDY    26  18  71 N9        30.06S WCI  17
ELBOW LAKE     CLOUDY    25  20  80 N12       30.09F WCI  14
WADENA         CLOUDY    25  19  80 NW8       30.08R WCI  16
DETROIT LAKES  PTSUNNY   25  21  86 N7        30.11R WCI  17
MOORHEAD       CLOUDY    25  23  93 N13       30.16R WCI  13
FERGUS FALLS   CLOUDY    25  18  74 N9G18     30.15R WCI  15
MORRIS MN      FAIR      27  21  80 N13       30.09R WCI  16
STAPLES        CLOUDY    25  19  80 N9        30.07R WCI  15
$$
  *****  WEATHER ELSEWHERE ACROSS MINNESOTA  *****

CITY           SKY/WX    TMP DP  RH WIND       PRES   REMARKS
DULUTH         FLURRIES  30  21  69 N7        30.01R WCI  23
INTRNTL FALLS  CLOUDY    24  17  74 NW9       30.08R WCI  14
ELY            CLOUDY    27  23  86 NW7       30.02R FOG     WCI  19
CLOQUET        CLOUDY    28  21  74 N9        30.03R WCI  20
WHEATON        CLOUDY    23  19  86 NW15      30.14F WCI  10
BRAINERD       CLOUDY    28  19  69 N10       30.06S WCI  19
HIBBING        CLOUDY    28  20  71 N9        30.04S WCI  19
ALEXANDRIA     CLOUDY    26  20  77 N9        30.07F WCI  17
SAINT CLOUD    CLOUDY    33  22  63 N9        30.04F
MINNEAPOLIS    CLOUDY    32  26  78 N16       30.01S WCI  21
$$

  *****  WEATHER ACROSS SOUTH DAKOTA  *****

CITY           SKY/WX    TMP DP  RH WIND       PRES   REMARKS
SIOUX FALLS    CLOUDY    28  22  78 N20       30.01F WCI  15
BROOKINGS      NOT AVBL
WATERTOWN      CLOUDY    22  17  81 N16       30.06F WCI   8
HURON          CLOUDY    24  19  81 N13       30.12S WCI  12
SISSETON         N/A     24  19  81 N17       30.12  WCI  11
ABERDEEN       CLOUDY    23  17  78 N14       30.15S WCI  11
MITCHELL       CLOUDY    25  20  81 N18       30.09F WCI  11
PIERRE         CLOUDY    22  17  81 N13       30.12F WCI  10
MOBRIDGE       CLOUDY    20  12  71 N10       30.13S WCI   9
RAPID CITY     FLURRIES  19  13  77 NE8       30.07F WCI   9
$$

  *****  SOME WEATHER IN NEARBY STATES *****

CITY           SKY/WX    TMP DP  RH WIND       PRES   REMARKS
GLASGOW MT     MOSUNNY   26  18  71 SE6       30.07F WCI  19
GREAT FALLS MT PTSUNNY   18  16  93 SW6       30.11F WCI   9
CHEYENNE WY    CLOUDY    15   7  70 N8        29.87S WCI   4
SCOTTSBLUFF NE LGT SNOW  21  16  81 W3        30.02S
OMAHA NE       CLOUDY    34  30  85 N12       29.97R
DES MOINES IA  CLOUDY    35  31  85 N9        29.94F FOG
DAVENPORT IA   FAIR      50  35  56 SW7       29.94F
CHICAGO IL     PTSUNNY   49  37  63 SW13G18   29.98S
EAU CLAIRE WI  CLOUDY    35  29  78 N7        29.96S
LA CROSSE WI   FAIR      42  32  67 W7        29.94R
$$

  *****  SOME NATIONAL WEATHER *****

CITY           SKY/WX    TMP DP  RH WIND       PRES   REMARKS
LA GUARDIA NY  FAIR      49  28  44 W7        30.18F
RALEIGH NC     FAIR      58  35  42 SW5       30.28F
ATLANTA GA     FAIR      57  32  38 CALM      30.26F
NEW ORLEANS LA PTSUNNY   66  54  65 E9        30.12F
OKLAHOMA CITY  PTSUNNY   61  44  53 S14G22    29.84F
ALBUQUERQUE NM PTSUNNY   36  10  34 W23G29    29.86S
SALT LAKE CITY PTSUNNY   28  17  63 N14       30.03R WCI  17
LOS ANGELES CA SUNNY     59  17  19 SE6       30.07F
BOISE ID       SUNNY     35  25  66 W13       30.19F
SEATTLE WA     PTSUNNY   37  36  93 CALM      30.36F FOG
$$

*** WEATHER ACROSS MANITOBA...SASKATCHEWAN AND ONTARIO ***
                ***ONTARIO***

CITY           SKY/WX    TMP DP  RH WIND       PRES   REMARKS
GERALDTON      FLURRIES  27  23  86 NW7       29.99R WCI  19
THUNDER BAY    PTSUNNY   32  23  69 NW6       30.02
SIOUX LOOKOUT  FLURRIES  21  16  79 NW12      30.04  WCI   9
TORONTO        PTSUNNY   45  36  70 S9        30.08S
BIG TROUT LK   FLURRIES   9   5  85 NW8       30.04R WCI  -4
PICKLE LAKE    FLURRIES  19  18  93 W5        29.99S WCI  13
DRYDEN         FLURRIES  16  12  86 W9        30.06S WCI   4
KENORA         FLURRIES  12   9  85 NW7       30.11S WCI   2
$$
                *** MANITOBA***

CITY           SKY/WX    TMP DP  RH WIND       PRES   REMARKS
BRANDON        MOSUNNY   -2  -9  71 W13       30.21F WCI -21
DAUPHIN        MOSUNNY   -4 -11  71 W10       30.22F WCI -21
ISLAND LAKE    PTCLDY    -6 -13  71 SW6       30.14S WCI -18
PILOT MOUND      N/A     -2  -8  78 NW9         N/A  WCI -18
THE PAS        FLURRIES  -4  -9  77 W12       30.16F WCI -22
THOMPSON       PTCLDY   -17 -24  70 W7        30.10F WCI -33
WINNIPEG       FLURRIES   9   3  78 NW13      30.22  WCI  -7
CHURCHILL      FLURRIES  -6 -11  77 W10       30.02  WCI -23
GILLAM         PTCLDY   -15 -22  70 W13       30.08S WCI -37
$$
                ***SASKATCHEWAN***

CITY           SKY/WX    TMP DP  RH WIND       PRES   REMARKS
ESTEVAN        PTSUNNY    5  -2  72 N3        30.15F
KINDERSLEY     CLOUDY    14  10  85 SW10      30.06  WCI   1
LLOYDMINSTER   LGT SNOW  10   9  92 NW12      30.03S WCI  -4
PRINCE ALBERT  FLURRIES  -2  -6  84 S3        30.10F
REGINA         PTSUNNY    3   1  92 SE8       30.14F WCI -10
YORKTON        SUNNY     -4  -9  77 S5        30.16F WCI -15
N. BATTLEFORD  FLURRIES  10   9  92 W7        30.08S WCI   0
LA RONGE       MOSUNNY   -8 -13  77 W2        30.10F
SASKATOON      PTSUNNY    7   3  85 SW13      30.12  WCI  -9
SWIFT CURRENT  FLURRIES  14  12  92 W13       30.04F WCI   0
$$
NOTE: THESE ARE AUTOMATED STATIONS WITH LIMITED QUALITY CONTROL
      "FAIR" INDICATES FEW OR NO CLOUDS BELOW 12,000 FEET WITH NO
      SIGNIFICANT WEATHER AND/OR OBSTRUCTIONS TO VISIBILITY.
      SKY/WX - SKY CONDITION AND SIGNIFICANT WEATHER.
      TMP - AIR TEMPERATURE.    DP   - DEWPOINT TEMPERATURE.
      RH  - RELATIVE HUMIDITY.  PRES - PRESSURE.
      HX  - HEAT INDEX.         WCI  - WIND CHILL INDEX.
$


USA.gov is the U.S. government's official web portal to all federal, state and local government web resources and services.